Regional Weather Roundup
Issued by NWS

Home | Current Version | Previous Version | Graphics & Text | Print | Product List | Glossary On
Versions: 1 2 3 4 5 6 7 8 9 10 11 12 13 14 15 16 17 18 19 20 21 22 23 24 25 26 27
000
ASUS45 KBOU 210707
RWRCO

WEATHER ROUNDUP FOR COLORADO
NATIONAL WEATHER SERVICE DENVER/BOULDER CO
100 AM MDT MON AUG 21 2017

NOTE: "FAIR" INDICATES FEW OR NO CLOUDS BELOW 12000 FEET WITH NO
SIGNIFICANT WEATHER AND/OR OBSTRUCTIONS TO VISIBILITY.

COZ001>005-013-030-031-210800-
...NORTHWEST COLORADO...

CITY           SKY/WX    TMP DP  RH WIND       PRES   REMARKS
CRAIG          FAIR      50  39  66 W3        30.22R
HAYDEN         FAIR      58  38  47 E13       30.26R
MEEKER         FAIR      60  39  45 E6        30.23R
RABBIT EARS PA FAIR      52  34  50 SE5       30.53S
STEAMBOAT SPGS FAIR      52  40  64 NW3       30.27R
WALDEN         FAIR      41  34  75 SE8       30.37R
$$

COZ006>008-011-210800-
...WEST CENTRAL VALLEYS...

CITY           SKY/WX    TMP DP  RH WIND       PRES   REMARKS
GRAND JUNCTION FAIR      77  34  21 CALM      30.07R
MONTROSE       FAIR      70  40  33 SE12G21   30.18R
EAGLE          FAIR      62  38  40 SE3       30.27R
RIFLE          FAIR      65  37  35 SE7       30.15R
DELTA          FAIR      74  38  27 S3        30.12S
NUCLA          FAIR      68  37  32 E8        30.23S
$$

COZ017>023-064>068-210800-
...SOUTHWEST COLORADO...

CITY           SKY/WX    TMP DP  RH WIND       PRES   REMARKS
DURANGO        FAIR      60  46  59 N5        30.30S
CORTEZ         MOCLDY    63  50  62 CALM      30.24R
PAGOSA SPRINGS FAIR      56  41  56 CALM      30.36S
TELLURIDE      FAIR      55  37  50 CALM      30.45S
WOLF CREEK PAS CLOUDY    46  32  57 CALM      30.68F
$$

COZ009-010-012-014-032>034-037-058>063-210800-
...CENTRAL COLORADO...

CITY           SKY/WX    TMP DP  RH WIND       PRES   REMARKS
ASPEN          FAIR      59  38  45 CALM      30.31R
BUENA VISTA    FAIR      55  42  61 CALM      30.40S
COPPER MTN     FAIR      54  34  47 S16       30.64S
BERTHOUD PASS  FAIR      43  37  81 W9        30.68S
COTTONWOOD PAS MOCLDY    55  37  50 SE10G18   30.52S
GUNNISON       FAIR      55  39  54 NE6       30.35R
KREMMLING      FAIR      55  39  54 CALM      30.32S
LEADVILLE      FAIR      42  35  76 CALM      30.50S
MONARCH PASS   MOCLDY    45  36  70 E6        30.75S
SALIDA         FAIR      63  44  49 S3        30.44S
SUNLIGHT       FAIR      52  32  46 E6        30.57S
WILKERSON PASS FAIR      48  36  61 W8        30.62F
$$

COZ069>075-210800-
...SAN LUIS VALLEY/SANGRE DE CRISTO MOUNTAINS...

CITY           SKY/WX    TMP DP  RH WIND       PRES   REMARKS
ALAMOSA        FAIR      59  44  57 SE5       30.34S
DEL NORTE      CLOUDY    60  42  51 E7        30.38S
LA VETA PASS   NOT AVBL
SAGUACHE       CLOUDY    61  43  51 CALM      30.39R
$$

COZ035-036-038>040-210800-
...NORTHERN COLORADO FRONT RANGE...

CITY           SKY/WX    TMP DP  RH WIND       PRES   REMARKS
DENVER INTL AP MOCLDY    71  43  36 SW12      30.13S
DMNS CITY PARK   N/A     67  47  48 SE10      30.13F
AURORA         MOCLDY    68  44  42 SW10      30.16S
FRONT RANGE AP FAIR      70  43  37 SW9       30.16R
ERIE MUNI ARPT FAIR      62  44  51 SW5       30.16S
BOULDER MUN AP FAIR      73  37  27 SW6       30.12S
CENTENNIAL     FAIR      71  42  35 SW16      30.17S
BROOMFIELD     NOT AVBL
FORT COLLINS   FAIR      63  56  78 NW5       30.10F
LONGMONT       FAIR      67  44  42 W6        30.12S
$$

COZ041-046-047-076>085-087-088-210800-
...PIKES PEAK/PALMER DIVIDE AND SOUTHERN FOOTHILLS...

CITY           SKY/WX    TMP DP  RH WIND       PRES   REMARKS
COLO. SPRINGS  MOCLDY    67  45  45 N10       30.19F
A. F. ACADEMY  FAIR      56  46  67 N6        30.22F
SCHRIEVER AFB  FAIR      71  38  30 NW10      30.19F
CHEYENNE MTN   MOCLDY    70  37  30 SW7       30.19F
ELLICOTT       NOT AVBL
FALCON         FAIR      61  43  51 W13       30.25F
FORT CARSON    FAIR      66  44  45 CALM      30.16S
LIMON          FAIR      58  49  72 N6        30.13F
MONUMENT HILL  FAIR      57  43  58 W9        30.28S
CANON CITY     CLEAR     72  48  43 W17G25    30.15F
WALSENBURG     PTSUNNY   72  45  37 SW13G18   30.20F
TRINIDAD       FAIR      65  49  56 SW9       30.18S
$$

COZ042>045-048>051-090-091-210800-
...NORTHEAST COLORADO...

CITY           SKY/WX    TMP DP  RH WIND       PRES   REMARKS
GREELEY ARPT   FAIR      63  57  81 N6        30.08F
AKRON          FAIR      65  61  87 SE6       30.06F
BURLINGTON     FAIR      68  62  81 S10       30.04F
WRAY           NOT AVBL
YUMA           FAIR      61  52  72 E3        30.04S
STERLING       FAIR      72  64  78 E3        30.02F
HOLYOKE        FAIR      66  63  88 E5        30.02F
FORT MORGAN    FAIR      64  60  85 E7        30.06F
$$

COZ086-089-092>099-210800-
...SOUTHEAST COLORADO...

CITY           SKY/WX    TMP DP  RH WIND       PRES   REMARKS
PUEBLO         FAIR      73  48  41 NW12      30.07F
LA JUNTA       FAIR      69  51  52 W7        30.05R
LAMAR          FAIR      76  59  55 SW16G25   29.99R
SPRINGFIELD      N/A     69  59  70 SW12G23   30.11R
$$




USA.gov is the U.S. government's official web portal to all federal, state and local government web resources and services.